Regional Weather Roundup
Issued by NWS

Home | Current Version | Previous Version | Text Only | Print | Product List | Glossary Off
Versions: 1 2 3 4 5 6 7 8 9 10 11 12 13 14 15 16 17 18 19 20 21 22 23 24 25 26 27 28 29 30 31 32 33 34 35 36 37 38 39 40 41 42 43 44 45 46 47 48 49 50

000
ASUS43 KDMX 041707
RWRIA

WEATHER ROUNDUP FOR IOWA
NATIONAL WEATHER SERVICE DES MOINES IA
1100 AM CST WED MAR 04 2015

NOTE: "FAIR" INDICATES FEW OR NO CLOUDS BELOW 12,000 FEET WITH NO
SIGNIFICANT WEATHER AND/OR OBSTRUCTIONS TO VISIBILITY.

* - THESE STATIONS ARE NOT NWS STATIONS...THUS NOT UNDER NWS
QUALITY CONTROL.  THEY ALSO DO NOT REPORT WEATHER SUCH
AS PRECIPITATION OR FOG.

IAZ001>003-012>014-020>022-031>034-043>046-041800-
   NORTHWEST IOWA

CITY           SKY/WX    TMP DP  RH WIND       PRES   REMARKS
CARROLL *      SUNNY     21   7  53 W15       30.25F WCI   8
CHEROKEE *     MOSUNNY   21   7  53 W16G25    30.25R WCI   7
DENISON *      SUNNY     23   5  46 W15       30.24F WCI  10
LE MARS *      SUNNY     21   5  49 NW20G30   30.27S WCI   6
ORANGE CITY *  SUNNY     19   1  45 NW20G31   30.24R WCI   4
SHELDON *      SUNNY     16   1  53 NW22G29   30.22R WCI  -2
SIOUX CITY     SUNNY     23   5  46 NW20      30.28R WCI   8
SPENCER        MOSUNNY   21   6  52 W26G35    30.22R WCI   4
STORM LAKE *   SUNNY     19   7  58 W14       30.23S WCI   6
$$

IAZ055>058-069>071-079>083-090>094-041800-
   SOUTHWEST IOWA

CITY           SKY/WX    TMP DP  RH WIND       PRES   REMARKS
ATLANTIC *     SUNNY     23   5  46 W15       30.28S WCI  10
AUDUBON *      SUNNY     23   5  46 W7G17     30.26S WCI  15
CLARINDA *     SUNNY     23  10  58 NW6       30.34S WCI  16
COUNCIL BLFS * SUNNY     25   7  46 NW8G16    30.27F WCI  16
CRESTON *      SUNNY     19   1  45 NW8G17    30.28F WCI   9
HARLAN  *      SUNNY     23   5  46 NW14G20   30.31F WCI  11
LAMONI         MOSUNNY   21   5  50 N10G16    30.29F WCI  10
RED OAK *      SUNNY     23  10  58 VRB7      30.31F WCI  15
SHENANDOAH *   MOSUNNY   25  12  58 VRB6      30.33F WCI  18
$$

IAZ047>049-059>061-072>074-084-041800-
   CENTRAL IOWA

CITY           SKY/WX    TMP DP  RH WIND       PRES   REMARKS
AMES           SUNNY     18   3  52 NW12      30.28F WCI   5
ANKENY *       SUNNY     18   1  49 NW12      30.30S WCI   5
CHARITON *     SUNNY     19   1  45 NW16G25   30.28F WCI   5
DES MOINES     MOSUNNY   20   2  45 NW8       30.30S WCI  10
GRINNELL*      SUNNY     14   1  57 NW16      30.28R WCI  -2
KNOXVILLE *    SUNNY     19   0  42 N13       30.28S WCI   7
MARSHALLTOWN   SUNNY     12   1  61 NW13      30.27S WCI  -3
PELLA *        SUNNY     19   9  63 N14       30.31S WCI   6
PERRY *          N/A     19   7  58 W8        30.28F WCI   9
$$

IAZ004>006-015-016-023>025-035-036-041800-
   NORTH CENTRAL IOWA

CITY           SKY/WX    TMP DP  RH WIND       PRES   REMARKS
ALGONA *       SUNNY     14 N/A N/A W10       30.25S WCI   1
CLARION *      SUNNY     14   3  62 NW10      30.25F WCI   1
ESTHERVILLE    MOSUNNY   11  -1  58 NW10      30.23R WCI  -3
FORT DODGE *   SUNNY     18   3  53 W8        30.26F WCI   7
MASON CITY     SUNNY      9  -3  58 NW10      30.26R WCI  -5
FOREST CITY *  SUNNY     10  -6  48 NW13      30.25R WCI  -5
IOWA FALLS *     N/A     14   3  62 W8        30.26F WCI   3
$$

IAZ007>011-017>019-026>030-037>042-050>054-066-041800-
   NORTHEAST IOWA

CITY           SKY/WX    TMP DP  RH WIND       PRES   REMARKS
CEDAR RAPIDS   SUNNY     11   1  64 NW15      30.26R WCI  -5
CHARLES CITY * SUNNY      9  -6  52 NW13      30.25S WCI  -7
CLINTON *      SUNNY     14   1  57 NW18      30.25R WCI  -3
DECORAH *      SUNNY      9  -8  47 NW12G17   30.22R WCI  -6
DUBUQUE          N/A    N/A N/A N/A MISG      30.19R
MONTICELLO *   SUNNY     10   0  61 NW15G22   30.24R WCI  -6
OELWEIN *      SUNNY      9  -2  61 NW16      30.25S WCI  -9
WATERLOO       SUNNY      9  -4  55 NW13      30.27F WCI  -7
$$

IAZ064-065-067-068-078-041800-
   EAST CENTRAL IOWA

CITY           SKY/WX    TMP DP  RH WIND       PRES   REMARKS
DAVENPORT      SUNNY     12   0  58 NW21      30.24R WCI  -7
IOWA CITY      SUNNY     14   0  53 NW17G24   30.30R WCI  -3
MT. PLEASANT * SUNNY     16   1  53 NW16G23   30.27F WCI   0
MUSCATINE *    SUNNY     16   3  57 NW15      30.29F WCI   1
QUAD CITIES    MOSUNNY   13   1  59 NW17G29   30.25R WCI  -4
$$

IAZ062-063-075>077-085>089-095>099-041800-
   SOUTHEAST IOWA

CITY           SKY/WX    TMP DP  RH WIND       PRES   REMARKS
BURLINGTON     MOSUNNY   16   3  56 NW12G22   30.25S WCI   3
FAIRFIELD *    SUNNY     16   0  48 N18G24    30.28S WCI  -1
FORT MADISON * SUNNY     16   5  62 NW15      30.26R WCI   1
KEOKUK *       MOSUNNY   18   3  53 NW14      30.26S WCI   4
OSKALOOSA *      N/A     18   3  53 N17       30.30S WCI   2
CENTERVILLE *  SUNNY     19   1  45 N16       30.29S WCI   5
OTTUMWA        SUNNY     17   2  51 N20G25    30.29S WCI   1
WASHINGTON *   SUNNY     16   5  62 N16       30.28F WCI   0
$$

ABBREVIATIONS USED IN REMARKS
   TC - TEMPERATURES IN CELSIUS
  WCI - WIND CHILL INDEX
   HX - HEAT INDEX
  VSB - VISIBILITY
$$



USA.gov is the U.S. government's official web portal to all federal, state and local government web resources and services.